Home > Weather > Lakewood > Past weeks

Flag for USA Past Weather in Lakewood, New Jersey, USA — Yesterday and Last 2 Weeks

Now
76 °F

Clear.


Feels Like: 77 °F
Forecast: 70 / 91 °F
Wind: 8 mph from Southwest

Location: Lakehurst Naval Air Station

Current Time: Jul 23, 2016 at 11:05:23 PM

Latest Report: Jul 23, 2016 at 10:00 PM


Visibility: 10 mi

Pressure: 29.87 "Hg

Humidity: 80%

Dew Point: 69 °F

Location of LakewoodLocation

Past Weather in Lakewood — Graph

°F

Lakewood Temperature Yesterday

Maximum temperature yesterday: 93 °F (at 4:00 PM)
Minimum temperature yesterday: 70 °F (at 5:00 AM)
Average temperature yesterday: 82 °F

High & Low Weather Summary for the Past Weeks

 TemperatureHumidityPressure
High97 °F (Jul 23, 4:00 PM)100% (Jul 9, 2:00 AM)30.22 "Hg (Jul 9, 2:00 AM)
Low58 °F (Jul 12, 5:00 AM)29% (Jul 23, 4:00 PM)29.78 "Hg (Jul 9, 7:00 PM)
Average77 °F72%29.99 "Hg
* Reported Jul 8 10:00 PM — Jul 23 10:00 PM, Lakewood, Weather by CustomWeather, © 2016

Note: Actual official high and low records may vary slightly from our data, if they occured in-between our weather recording intervals... More about our weather records

Advertising

Lakewood Weather History for the Previous 24 Hours

Scroll right to see more
 ConditionsComfort  
Time TempWeatherWind HumidityBarometerVisibility
10:00 PM
Sat, Jul 23
76 °FClear.8 mph80%29.87 "Hg10 mi
9:00 PM77 °FPassing clouds.No wind74%29.85 "Hg10 mi
8:00 PM79 °FSunny.5 mph69%29.85 "Hg10 mi
7:00 PM83 °FPassing clouds.10 mph63%29.83 "Hg10 mi
6:00 PM86 °FPassing clouds.14 mph55%29.81 "Hg10 mi
5:00 PM91 °FSunny.6 mph47%29.80 "Hg10 mi
4:00 PM97 °FSunny.12 mph29%29.82 "Hg10 mi
3:00 PM96 °FSunny.7 mph34%29.83 "Hg10 mi
2:00 PM95 °FScattered clouds.8 mph37%29.84 "Hg10 mi
1:00 PM94 °FPassing clouds.13 mph36%29.85 "Hg10 mi
12:00 PM93 °FPassing clouds.10 mph42%29.86 "Hg10 mi
11:00 AM90 °FSunny.10 mph52%29.87 "Hg10 mi
10:00 AM88 °FSunny.12 mph55%29.87 "Hg10 mi
9:00 AM85 °FSunny.8 mph63%29.88 "Hg10 mi
8:00 AM80 °FSunny.8 mph71%29.88 "Hg9 mi
7:00 AM75 °FSunny.No wind88%29.87 "Hg7 mi
6:00 AM72 °FFog.5 mph93%29.86 "Hg5 mi
5:00 AM73 °FClear.6 mph90%29.85 "Hg7 mi
4:00 AM74 °FClear.5 mph88%29.85 "Hg8 mi
3:00 AM76 °FClear.6 mph80%29.85 "Hg8 mi
2:00 AM78 °FClear.8 mph74%29.84 "Hg9 mi
1:00 AM79 °FClear.9 mph72%29.84 "Hg9 mi
12:00 AM80 °FClear.9 mph67%29.84 "Hg9 mi
11:00 PM
Fri, Jul 22
80 °FClear.N/A69%29.84 "Hg9 mi
Weather by CustomWeather, © 2016

See weather overviewHow to use our weather pages